This is the latest recevied weather packets stored in our database for station/object CE3SUR-16. If no packets are shown the sender has not sent any weather packets the latest 10 day(s).
| Time | Temp. | Humidity | Pressure | Rain* | Wind** | Luminosity | Snow |
|---|---|---|---|---|---|---|---|
| 1777410102 | 22.78° C | 61% | 949.8 hPa | - | - | - | - |
| 1777408303 | 22.78° C | 62% | 949.9 hPa | - | - | - | - |
| 1777406502 | 22.78° C | 62% | 949.9 hPa | - | - | - | - |
| 1777404701 | 22.78° C | 62% | 949.9 hPa | - | - | - | - |
| 1777402901 | 22.78° C | 63% | 949.7 hPa | - | - | - | - |
| 1777401101 | 22.78° C | 63% | 949.9 hPa | - | - | - | - |
| 1777399465 | 22.78° C | 63% | 950 hPa | - | - | - | - |
| 1777399300 | 22.78° C | 63% | 950 hPa | - | - | - | - |
| 1777397502 | 22.78° C | 63% | 950.4 hPa | - | - | - | - |
| 1777395702 | 22.78° C | 63% | 951 hPa | - | - | - | - |
| 1777393901 | 22.78° C | 63% | 951.3 hPa | - | - | - | - |
| 1777392101 | 23.33° C | 63% | 951.6 hPa | - | - | - | - |
| 1777390301 | 23.33° C | 63% | 951.6 hPa | - | - | - | - |
| 1777388501 | 23.89° C | 63% | 951.6 hPa | - | - | - | - |
| 1777386744 | 24.44° C | 63% | 951.6 hPa | - | - | - | - |
| 1777386700 | 24.44° C | 63% | 951.6 hPa | - | - | - | - |
| 1777384900 | 25° C | 64% | 951.8 hPa | - | - | - | - |
| 1777383100 | 24.44° C | 65% | 952 hPa | - | - | - | - |
| 1777381300 | 24.44° C | 66% | 952.1 hPa | - | - | - | - |
| 1777379500 | 23.33° C | 66% | 952.1 hPa | - | - | - | - |
| 1777377699 | 21.67° C | 66% | 951.8 hPa | - | - | - | - |
| 1777375903 | 20.56° C | 66% | 951.8 hPa | - | - | - | - |
| 1777374102 | 20.56° C | 66% | 951.7 hPa | - | - | - | - |
| 1777372302 | 20.56° C | 66% | 951.7 hPa | - | - | - | - |
| 1777370502 | 20.56° C | 66% | 951.4 hPa | - | - | - | - |
* Rain since midnight (hover to see other rain measurements)
** Current wind speed in m/s (hover to see current wind gust speed)